COSMOS 2522 (752)

Last updated on Tue Sep 16 2025 00:03:19 GMT+0000 (Coordinated Universal Time)

1 42939U 17055A 25258.13710330 .00000011 00000+0 00000+0 0 9995 2 42939 64.0785 201.2445 0009310 238.5900 121.3112 2.13101869 62119
UTC large
Height (km)
Speed (km/s)
/
Latitude / Longitude
Inclination (degrees)
Orbital Period (minutes)
Azimuth
Elevation
Range (km)
Doppler Factor

Next 0 passes for location: London (51.5072 / 0.1276)

Sorry there are no passes over London.